EHI
0 0 0 0 0 0 0 0 0 0 0 1 0 0 0 0 0 0 0 0 0 1 3 7 10 11 12 12 10 9 7 5 3 2 2 1 0 0 0 0 0 0 0 0 0 0 0 1 0
0 0 0 0 0 0 0 0 0 0 0 1 0 0 0 0 0 0 0 0 1 1 3 6 9 11 12 11 9 8 6 5 3 1 1 0 0 0 0 0 0 0 0 0 0 0 1 2 1
0 0 0 0 0 0 0 0 0 0 1 1 0 0 0 0 0 0 0 0 1 1 1 5 9 11 10 9 7 7 6 5 3 1 1 1 1 0 0 0 0 0 0 1 0 1 2 3 3
0 0 0 0 0 0 0 1 2 2 2 1 0 0 0 0 1 1 0 0 0 0 1 5 10 12 9 7 6 6 6 4 2 2 2 3 3 1 1 1 0 0 0 0 0 1 2 3 4
0 0 0 0 0 0 0 1 2 4 4 3 1 0 0 2 3 3 2 0 0 0 1 5 11 12 8 6 6 6 6 5 3 2 3 4 5 4 3 2 1 1 1 1 1 2 3 4 4
0 0 0 0 0 0 0 1 2 4 4 3 2 1 1 3 5 6 4 1 0 0 1 4 9 10 8 8 8 8 8 6 5 4 3 4 5 5 4 3 3 3 3 4 5 6 6 6 5
0 0 0 0 0 0 0 0 0 2 2 2 2 1 1 3 6 6 5 2 1 1 1 2 4 6 6 8 11 11 9 7 5 4 3 3 5 5 5 4 5 6 7 8 9 10 9 8 8
0 0 0 0 0 0 0 0 0 0 1 1 1 1 1 4 7 9 8 6 3 3 2 1 1 3 4 6 9 10 8 6 5 4 4 4 4 4 4 5 7 9 10 11 11 12 11 10 10
0 0 0 0 0 0 1 1 1 2 2 2 2 2 4 7 11 12 11 9 8 6 4 2 1 2 3 3 4 5 5 4 4 4 5 5 3 2 2 5 9 11 12 11 12 13 12 11 10
0 0 0 0 0 0 1 2 3 4 5 4 4 5 8 11 13 14 13 12 10 8 7 5 4 4 3 2 1 1 2 3 3 3 5 4 3 2 2 4 7 9 9 10 10 11 12 10 8
0 0 0 0 0 2 3 3 4 5 5 5 6 9 11 13 14 14 14 12 10 10 10 10 8 7 5 2 0 0 2 3 3 3 4 5 4 3 3 4 4 5 5 6 7 8 9 7 6
0 0 0 0 1 4 6 7 6 6 6 7 9 11 13 15 15 14 13 12 11 11 12 13 13 11 7 3 1 1 2 4 4 4 4 5 4 3 3 3 3 3 3 4 4 5 5 5 5
0 0 0 1 3 6 9 10 9 8 9 10 11 13 15 16 16 14 14 14 13 12 13 15 14 12 9 5 3 3 4 4 5 4 4 4 4 4 3 3 3 3 4 4 4 4 4 4 4
0 0 0 1 3 5 8 8 9 10 12 13 12 14 16 18 17 16 16 17 17 15 15 15 14 13 11 10 8 6 5 4 4 3 3 3 4 4 4 3 3 4 4 4 3 3 2 2 2
0 0 0 0 1 3 5 6 8 12 14 14 14 17 21 22 21 18 18 20 20 19 18 17 16 15 14 12 11 8 6 4 3 2 3 3 3 4 3 3 3 3 4 3 3 2 1 1 1
0 0 0 0 0 1 3 5 10 17 18 17 18 22 25 25 22 20 21 24 25 22 20 19 19 17 14 11 11 9 6 4 3 2 3 3 3 4 4 4 4 3 3 3 3 2 1 1 0
0 0 0 0 0 1 3 6 13 21 23 22 22 25 27 25 23 23 27 30 29 25 23 22 22 19 14 11 11 10 7 5 3 4 4 4 4 4 4 5 5 4 3 3 3 3 2 2 1
0 0 0 0 0 0 2 7 14 21 25 24 24 26 27 25 24 26 30 33 31 29 27 27 25 22 18 15 14 12 9 6 5 5 5 4 4 5 5 4 5 4 4 3 3 2 2 2 2
0 0 0 0 0 1 4 8 14 20 23 23 24 27 28 26 26 30 32 32 31 30 30 29 28 26 23 20 17 13 9 6 5 6 5 4 5 6 6 5 4 5 5 4 3 2 2 2 3
0 0 0 0 1 3 6 9 14 19 23 23 24 28 29 27 30 34 35 33 31 31 31 30 30 29 26 22 18 15 12 8 6 7 5 3 4 6 7 6 6 6 5 4 3 3 2 2 2
0 0 0 1 2 4 5 7 11 17 22 23 25 28 30 31 33 36 37 35 33 32 32 32 32 32 29 24 20 20 18 13 9 9 7 5 4 5 6 6 6 5 4 3 3 2 2 2 2
0 0 0 1 2 3 3 4 8 15 21 24 24 24 28 32 33 34 34 33 31 31 32 34 33 31 29 27 25 25 23 18 13 11 10 7 5 4 4 5 4 4 3 3 3 2 1 1 1
0 0 0 1 1 2 1 2 7 13 18 20 19 18 21 26 28 28 29 28 27 27 31 34 31 28 28 28 27 26 23 17 13 12 10 9 8 6 5 4 4 3 3 3 3 3 1 0 1
0 0 0 0 0 0 0 1 5 8 12 15 15 14 16 19 21 22 23 24 23 24 28 30 28 26 26 26 25 23 19 15 12 11 9 8 9 8 7 5 4 3 3 3 3 3 2 1 0
0 0 0 0 0 0 0 0 1 3 7 12 14 13 15 17 17 17 19 21 21 22 25 25 24 22 21 21 21 19 16 14 12 11 10 8 8 8 8 7 5 3 3 3 3 3 3 2 1
0 0 0 0 0 0 0 1 1 3 8 13 14 15 16 16 15 15 17 18 18 18 20 20 17 15 16 17 17 17 16 14 13 14 12 9 7 7 7 8 7 5 4 3 3 3 3 3 3
0 0 0 0 0 0 0 2 4 8 14 17 15 14 15 14 14 14 15 16 16 15 15 15 13 12 13 15 16 16 15 15 14 13 12 9 7 6 7 7 8 7 5 4 3 3 3 3 3
0 0 0 0 0 0 0 2 5 11 17 18 15 12 11 12 12 12 13 14 14 12 10 10 12 13 13 14 15 16 15 15 13 11 10 9 7 6 6 6 6 6 5 4 4 3 3 3 3
0 0 0 0 0 0 0 1 4 10 16 16 13 10 8 8 9 9 10 12 12 10 9 9 12 14 15 14 14 14 14 14 13 11 10 9 8 7 6 6 5 4 5 5 5 4 3 3 2
0 0 0 0 0 0 0 1 4 9 14 15 12 8 6 6 7 7 8 10 11 10 9 9 12 13 15 14 12 12 13 14 14 12 10 9 8 7 6 6 5 4 5 6 6 4 4 4 3
Wind_Speed
5 4 2 1 4 5 2 2 2 4 5 6 9 10 9 6 5 6 3 11 13 11 8 10 12 13 12 11 11 11 11 11 11 11 11 11 10 10 10 10 10 10 9 9 9 9 9 9 9
3 3 1 3 5 3 2 1 4 6 9 10 10 11 9 8 8 10 6 10 13 11 8 9 12 12 12 11 12 11 11 11 11 11 11 10 10 9 9 9 9 9 9 9 9 8 9 8 8
2 2 3 4 3 2 2 2 5 7 8 7 6 6 6 7 9 8 9 13 11 9 7 9 13 12 12 12 12 12 11 11 11 11 10 9 9 9 9 9 9 8 8 8 8 7 7 7 7
2 2 3 4 1 3 4 4 4 6 6 7 8 7 5 6 7 10 15 14 12 9 7 9 13 12 12 12 12 12 12 11 10 10 10 9 8 8 8 8 8 7 7 7 7 6 6 5 5
3 4 4 2 1 3 4 4 5 6 4 7 10 9 5 5 14 17 16 14 13 9 6 8 12 12 11 12 13 12 12 11 10 10 9 9 8 7 6 6 7 7 6 6 6 5 5 4 4
3 4 3 1 2 2 2 3 6 9 9 9 11 9 4 9 15 16 15 13 12 11 8 7 12 13 12 13 13 12 12 11 10 9 8 8 7 6 6 6 6 6 6 6 5 5 4 4 3
3 3 2 2 1 1 2 3 6 8 8 7 9 8 5 7 12 15 14 12 11 10 9 6 7 9 11 12 12 12 11 11 9 8 7 7 6 5 5 5 6 5 5 5 5 5 4 3 3
4 4 1 2 2 3 2 2 5 8 6 8 7 9 7 8 12 13 12 10 10 8 8 7 6 5 5 7 11 11 10 10 9 7 6 6 5 5 5 4 5 5 5 5 5 4 4 3 3
3 4 2 4 4 3 3 4 3 4 7 4 4 7 11 14 15 13 10 8 7 8 6 6 6 5 5 5 8 8 9 8 7 5 5 4 2 2 2 3 4 4 4 3 4 3 3 3 2
4 3 6 6 4 4 4 5 5 6 7 6 8 9 12 13 15 14 12 10 9 8 7 6 6 6 5 5 4 3 4 4 3 2 3 2 1 1 2 3 4 3 3 2 2 2 1 1 1
4 6 6 4 4 5 4 3 3 9 6 10 15 14 12 12 12 12 11 10 9 9 8 6 6 6 5 3 4 2 2 2 2 2 3 2 1 1 1 1 1 1 1 1 1 1 1 1 1
3 6 6 5 3 4 5 4 4 5 8 12 16 16 14 12 11 11 11 9 8 8 7 6 6 6 5 4 4 3 2 2 2 2 3 3 2 1 1 1 1 1 0 1 1 1 1 1 1
3 5 5 4 2 4 6 7 7 5 9 13 14 13 12 11 10 9 9 9 9 8 7 7 6 6 5 4 3 3 3 3 2 2 2 3 2 2 1 1 1 1 1 1 1 1 1 1 1
4 4 4 3 3 4 7 6 6 7 13 14 14 12 11 10 9 8 8 8 8 8 8 7 7 6 5 4 3 3 3 3 2 2 2 3 3 2 2 2 1 1 1 1 2 2 1 1 1
2 3 5 4 2 3 6 2 5 10 14 14 13 12 11 9 9 9 9 9 9 8 8 7 7 6 6 5 4 3 2 3 2 2 2 2 2 2 2 2 1 1 1 1 2 2 2 2 2
4 3 3 6 1 3 7 4 5 10 13 12 12 11 11 8 9 8 8 8 8 8 7 7 7 7 6 5 4 3 2 3 2 2 2 2 2 3 2 2 1 1 1 2 2 2 2 2 1
4 1 3 6 3 2 4 5 6 9 12 11 10 10 10 8 7 7 7 8 9 9 7 6 6 7 6 5 4 3 2 2 2 2 2 2 2 3 3 2 1 1 2 2 2 2 2 1 1
4 3 4 5 4 2 3 3 5 9 11 11 10 9 9 10 8 8 8 8 8 7 7 6 5 5 5 4 3 2 2 1 2 2 2 2 2 3 3 2 1 2 2 2 2 2 1 1 1
4 4 6 7 4 3 5 4 6 10 9 9 8 8 8 8 7 8 7 7 7 6 6 6 5 4 4 3 3 2 2 1 1 1 2 3 2 2 3 2 1 2 2 2 2 2 2 1 1
4 5 7 6 2 3 5 3 3 8 10 11 11 9 9 7 5 7 7 6 6 6 6 6 6 5 4 3 3 2 2 2 2 1 1 2 2 2 3 2 2 2 2 2 2 2 2 1 1
6 5 5 4 3 3 4 2 0 2 4 6 7 9 9 11 10 9 8 6 6 5 6 6 5 5 4 4 3 2 2 2 1 1 1 1 2 2 2 2 2 2 2 2 1 2 3 1 0
6 6 4 3 2 2 3 2 3 2 3 4 6 7 8 8 9 8 8 6 5 5 5 5 5 4 4 4 4 4 3 2 2 2 1 1 1 2 2 2 2 2 2 2 1 1 2 2 1
7 5 3 2 3 0 1 4 4 0 3 5 6 8 8 9 9 8 7 7 5 5 5 4 4 3 3 3 4 4 3 2 1 1 2 2 1 1 1 2 1 2 1 1 1 1 1 2 2
4 2 4 5 5 0 4 4 3 3 6 7 6 7 7 8 8 7 6 5 5 4 5 4 5 3 3 4 3 4 3 2 2 2 1 1 1 1 1 1 1 2 1 1 1 1 2 2 2
3 5 4 5 4 4 2 4 5 4 6 9 10 8 7 7 7 6 6 5 5 5 5 4 5 3 2 3 3 3 3 3 3 2 2 2 1 1 2 1 1 1 2 2 1 1 1 1 1
3 9 8 5 4 4 2 2 3 2 4 7 9 9 8 7 6 6 6 6 5 5 5 4 4 3 2 2 2 2 2 2 2 2 2 2 2 2 2 2 2 2 2 2 2 1 2 1 1
3 2 7 7 2 1 1 0 2 3 6 8 8 8 7 6 6 6 5 5 5 5 4 4 4 2 2 2 2 1 1 2 1 1 1 1 1 1 1 2 2 2 2 2 2 1 2 1 1
5 5 6 5 3 1 0 1 3 3 5 6 6 7 6 6 6 5 5 5 5 4 3 3 3 3 2 2 2 2 1 1 1 2 1 1 1 1 1 2 2 2 2 2 2 1 2 1 1
2 3 5 4 5 6 2 3 3 7 7 7 6 6 7 6 6 5 4 4 4 4 3 3 2 2 1 1 1 1 1 1 1 1 2 2 1 1 2 2 2 2 2 2 2 2 2 2 2
4 4 6 5 2 4 4 4 2 5 6 7 7 6 6 6 5 5 5 4 4 4 3 2 2 2 2 1 1 1 1 1 1 1 1 1 1 2 2 2 2 2 2 2 3 3 3 2 2
Wind_Direction
169 165 149 94 54 50 17 276 118 86 68 67 84 88 85 70 106 132 140 140 138 142 144 138 133 126 122 122 121 121 120 117 113 110 107 105 104 103 104 108 109 110 111 113 114 114 115 116 115
164 165 90 52 66 54 319 240 112 114 127 113 87 86 82 75 92 115 126 143 143 142 142 137 133 128 125 125 125 123 120 119 118 115 112 109 107 107 110 115 116 115 114 116 119 119 117 117 118
186 180 84 67 76 154 220 230 131 119 121 107 92 68 78 109 118 134 150 147 140 135 137 140 135 132 130 130 129 127 126 123 121 118 115 113 111 110 114 119 121 121 121 122 122 122 123 122 124
119 62 48 66 127 230 198 211 148 121 90 86 99 74 67 109 128 139 143 143 136 136 140 142 137 136 136 135 133 131 129 127 124 119 117 116 116 115 122 125 128 128 128 131 132 130 129 128 127
76 78 54 14 273 253 218 188 150 121 100 101 100 97 83 88 121 134 141 142 139 140 142 142 139 139 138 138 136 133 134 131 129 126 125 123 120 120 125 132 135 137 139 142 143 142 141 138 132
64 75 80 332 286 283 229 160 120 103 112 110 104 106 108 128 131 141 143 143 143 143 142 142 142 139 135 135 136 136 137 138 133 132 134 132 127 129 135 139 142 142 147 152 155 155 156 155 145
123 105 160 192 244 285 187 133 122 131 137 135 125 107 124 142 145 144 142 140 141 142 141 143 145 141 140 140 140 140 141 142 140 138 139 138 138 141 143 148 151 153 154 159 164 166 165 167 159
147 110 170 205 194 216 181 139 139 136 127 132 124 128 152 162 145 137 135 135 137 139 143 145 144 142 141 143 148 148 147 146 145 143 145 148 153 156 158 153 158 164 163 169 171 177 181 181 171
112 82 226 215 192 192 157 122 108 95 106 101 93 130 149 141 133 130 128 127 136 141 146 149 151 151 148 147 152 151 151 153 153 150 151 150 144 146 158 156 159 167 174 176 176 185 192 188 181
116 160 226 214 188 178 169 146 141 105 97 91 93 112 131 133 135 139 143 147 150 154 157 156 155 153 151 153 139 141 151 156 156 154 158 151 145 148 145 135 150 158 160 152 142 153 180 173 186
166 198 233 247 204 176 160 145 118 126 134 150 144 145 143 139 140 144 147 149 153 154 156 158 153 152 155 146 140 143 144 153 163 169 161 152 144 142 127 112 139 149 151 106 81 72 107 118 123
216 243 235 244 215 156 146 133 110 139 168 158 150 150 145 144 148 148 147 148 147 148 152 153 151 151 154 146 151 155 154 159 168 175 161 148 142 143 148 158 158 156 142 108 85 110 103 101 112
227 251 256 243 184 151 132 134 133 150 150 145 144 144 148 150 151 150 147 146 145 146 152 156 146 148 153 150 155 150 155 163 166 158 155 144 137 145 155 163 148 167 151 145 142 128 117 120 109
240 258 267 251 205 161 140 144 129 167 147 146 148 151 153 153 148 142 142 143 147 147 148 149 144 146 142 143 142 146 154 155 148 153 152 144 139 138 135 131 137 142 142 149 145 145 137 126 114
322 335 317 278 217 176 122 120 166 165 148 150 153 153 150 148 143 151 154 149 148 150 146 145 148 142 140 139 138 137 139 135 139 154 144 137 135 132 126 120 118 123 112 110 107 102 95 97 86
8 24 311 289 229 189 123 183 197 156 146 152 153 151 150 150 154 159 152 146 148 149 147 152 148 142 143 141 135 125 120 122 138 143 136 140 139 127 119 113 111 103 99 103 107 92 85 81 78
8 293 260 289 269 165 131 180 186 154 147 150 151 154 153 152 154 158 152 151 154 155 151 149 145 148 149 141 134 126 119 118 133 128 127 132 123 115 115 120 127 115 101 97 111 96 112 113 96
241 251 262 258 270 114 133 168 159 156 148 152 155 156 158 158 167 162 154 153 151 149 144 142 143 145 139 128 117 106 94 94 108 118 124 121 124 121 115 119 112 112 104 88 88 98 95 115 129
227 252 263 263 263 126 152 159 157 154 150 153 158 159 156 155 158 147 145 144 136 136 137 145 143 145 138 131 138 137 147 139 114 124 132 127 122 123 125 131 122 111 111 117 116 111 85 65 77
240 259 272 286 276 136 151 162 162 159 167 168 162 158 153 141 132 137 135 135 142 146 148 150 153 155 153 152 156 156 147 145 141 144 134 135 124 126 137 135 145 128 106 100 99 102 98 62 77
250 227 236 244 332 44 108 33 65 183 135 142 148 154 156 152 150 149 147 149 147 152 156 155 157 153 151 143 125 106 83 70 79 103 152 154 143 137 127 140 138 119 117 133 141 131 131 141 46
254 242 209 192 112 270 130 155 286 184 118 130 149 157 155 147 143 145 145 144 157 170 153 141 141 143 147 140 137 143 154 169 189 184 171 161 160 151 149 148 146 134 132 140 185 155 143 135 142
227 235 208 177 157 36 15 122 271 279 164 181 170 160 152 147 142 138 142 152 157 152 137 134 123 117 121 135 146 146 153 179 176 147 145 156 187 184 171 159 151 138 146 156 176 154 147 144 148
222 23 23 49 74 336 242 145 245 225 198 185 171 154 151 139 133 129 131 131 120 114 112 116 111 102 104 106 110 133 147 154 133 134 155 174 203 220 212 159 166 162 159 162 189 198 169 163 158
81 83 30 1 13 252 232 128 224 225 188 163 154 150 146 131 127 123 118 116 121 121 121 117 123 117 116 122 133 149 156 151 148 158 172 179 199 226 225 190 192 191 190 188 183 195 201 182 167
179 136 154 192 219 269 351 156 241 207 129 123 127 133 131 127 131 134 137 136 135 135 130 127 129 131 137 142 152 146 142 145 160 168 168 185 205 221 213 198 198 200 200 208 189 197 219 197 190
143 159 166 143 167 110 309 86 5 69 94 105 116 125 134 139 138 137 134 135 133 135 136 143 149 152 164 164 154 144 140 135 147 154 158 187 217 217 198 203 202 204 202 205 183 198 222 210 204
149 143 86 102 141 189 313 204 210 181 144 129 130 134 146 144 134 133 131 130 130 138 135 133 139 152 160 158 171 169 176 159 164 155 173 197 219 220 191 218 220 211 199 194 182 205 218 197 218
60 77 104 117 148 149 180 262 224 181 164 151 145 141 136 131 139 142 134 128 126 123 127 129 132 125 136 167 181 173 179 173 168 182 198 200 207 205 199 213 215 213 215 207 199 217 210 205 235
136 157 141 143 203 145 149 248 314 155 146 139 135 125 119 118 120 121 116 111 111 115 124 137 151 154 180 174 149 161 169 163 167 213 221 201 201 211 209 206 209 222 222 208 201 221 216 202 214